K9BM Weather Reports


Display with metric or nautical units.
time (UTC)temp
F
wind
direction
speed
MPH
gust
MPH
rain 1hr
in
rain 24hr
in
rain mn
in
humidity
%
barometer
mb
20260505024504 47 55 5.0 10.0 0.00 0.00 0.00 52 1011.5
20260505023504 47 45 6.0 10.0 0.00 0.00 0.00 51 1011.3
20260505023005 47 47 4.0 6.0 0.00 0.00 0.00 51 1011.3
20260505022504 48 52 3.0 9.0 0.00 0.00 0.00 51 1011.3
20260505022005 48 38 4.0 10.0 0.00 0.00 0.00 50 1011.2
20260505021504 48 32 6.0 12.0 0.00 0.00 0.00 49 1011.2
20260505020004 49 25 6.0 12.0 0.00 0.00 0.00 47 1011.1
20260505015504 49 45 5.0 8.0 0.00 0.00 0.00 45 1011.1
20260505015004 49 63 2.0 7.0 0.00 0.00 0.00 44 1011.0
20260505014504 49 57 4.0 7.0 0.00 0.00 0.00 43 1011.0
20260505014004 49 64 4.0 7.0 0.00 0.00 0.00 43 1010.9
20260505013004 50 101 1.0 3.0 0.00 0.00 0.00 43 1010.8
20260505012504 50 102 2.0 3.0 0.00 0.00 0.00 42 1010.7
20260505012004 50 102 0.0 3.0 0.00 0.00 0.00 43 1010.7
20260505011504 51 102 1.0 3.0 0.00 0.00 0.00 43 1010.7
20260505011004 51 102 2.0 3.0 0.00 0.00 0.00 42 1010.7
20260505010004 51 102 3.0 3.0 0.00 0.00 0.00 42 1010.6
20260505005504 51 99 2.0 3.0 0.00 0.00 0.00 41 1010.6
20260505005004 51 99 1.0 3.0 0.00 0.00 0.00 42 1010.6
20260505004504 51 99 2.0 3.0 0.00 0.00 0.00 42 1010.6
20260505004005 51 99 2.0 3.0 0.00 0.00 0.00 42 1010.6
20260505003005 51 99 4.0 6.0 0.00 0.00 0.00 41 1010.5
20260505002504 51 86 3.0 5.0 0.00 0.00 0.00 41 1010.5
20260505002005 51 81 2.0 5.0 0.00 0.00 0.00 41 1010.4
20260505001004 51 81 3.0 5.0 0.00 0.00 0.00 41 1010.6
20260505000004 51 51 1.0 5.0 0.00 0.00 0.00 40 1010.4
20260504235504 51 51 1.0 5.0 0.00 0.00 0.00 39 1010.4
20260504235004 52 53 2.0 6.0 0.00 0.00 0.00 39 1010.4
20260504234504 52 37 2.0 6.0 0.00 0.00 0.00 39 1010.3
20260504234004 52 57 2.0 7.0 0.00 0.00 0.00 39 1010.2
20260504233505 52 79 3.0 7.0 0.00 0.00 0.00 40 1010.1
20260504232005 52 102 3.0 10.0 0.00 0.00 0.00 39 1010.0
20260504231505 52 100 5.0 10.0 0.00 0.00 0.00 40 1010.0
20260504231005 51 111 5.0 9.0 0.00 0.00 0.00 40 1010.0
20260504230005 50 98 7.0 9.0 0.00 0.00 0.00 42 1010.0
20260504225505 49 85 3.0 10.0 0.00 0.00 0.00 42 1010.0
20260504225005 49 82 6.0 10.0 0.00 0.00 0.00 42 1010.0
20260504224505 49 81 5.0 9.0 0.00 0.00 0.00 42 1009.9
20260504223505 49 32 5.0 9.0 0.00 0.00 0.00 44 1009.8
20260504222505 49 58 5.0 12.0 0.00 0.00 0.00 44 1009.8
20260504222005 49 18 5.0 8.0 0.00 0.00 0.00 45 1009.8
20260504221505 49 58 5.0 10.0 0.00 0.00 0.00 46 1009.9
20260504221005 49 61 6.0 12.0 0.00 0.00 0.00 45 1009.8
20260504220005 49 59 6.0 10.0 0.00 0.00 0.00 45 1009.9
20260504215505 50 55 5.0 10.0 0.00 0.00 0.00 45 1009.9
20260504215005 50 49 5.0 9.0 0.00 0.00 0.00 44 1009.9
20260504214505 50 27 6.0 12.0 0.00 0.00 0.00 45 1010.0
20260504214005 50 9 4.0 12.0 0.00 0.00 0.00 45 1010.0
20260504213505 50 28 8.0 12.0 0.00 0.00 0.00 44 1010.1
20260504212505 49 32 8.0 14.0 0.00 0.00 0.00 46 1010.1
20260504211505 49 22 8.0 12.0 0.00 0.00 0.00 46 1010.2
20260504211006 49 23 7.0 16.0 0.00 0.00 0.00 45 1010.3
20260504205505 49 26 9.0 13.0 0.00 0.00 0.00 46 1010.2
20260504205005 49 2 8.0 13.0 0.00 0.00 0.00 45 1010.2
20260504204505 49 20 7.0 13.0 0.00 0.00 0.00 45 1010.2
20260504204005 49 12 9.0 13.0 0.00 0.00 0.00 45 1010.1
20260504203505 49 0 7.0 15.0 0.00 0.00 0.00 44 1010.0
20260504203005 50 4 11.0 15.0 0.00 0.00 0.00 43 1009.9
20260504202005 49 16 9.0 15.0 0.00 0.00 0.00 45 1010.0
20260504201005 49 1 10.0 16.0 0.00 0.00 0.00 45 1009.9
20260504200005 49 359 9.0 13.0 0.00 0.00 0.00 50 1009.8
20260504195505 49 353 8.0 13.0 0.00 0.00 0.00 51 1009.8
20260504195005 49 355 8.0 12.0 0.00 0.00 0.00 51 1009.7
20260504194505 49 5 8.0 12.0 0.00 0.00 0.00 50 1009.7
20260504194005 50 18 7.0 12.0 0.00 0.00 0.00 49 1009.7
20260504193505 50 13 7.0 12.0 0.00 0.00 0.00 48 1009.7
20260504193005 50 15 6.0 12.0 0.00 0.00 0.00 47 1009.7
20260504192505 51 20 3.0 10.0 0.00 0.00 0.00 47 1009.6
20260504191505 51 23 4.0 12.0 0.00 0.00 0.00 46 1009.7
20260504191005 51 15 9.0 12.0 0.00 0.00 0.00 45 1009.6
20260504190005 51 60 2.0 10.0 0.00 0.00 0.00 43 1009.6
20260504185505 52 58 5.0 12.0 0.00 0.00 0.00 43 1009.5
20260504185005 52 23 3.0 12.0 0.00 0.00 0.00 42 1009.4
20260504184505 52 57 4.0 13.0 0.00 0.00 0.00 41 1009.4
20260504183505 51 16 7.0 14.0 0.00 0.00 0.00 43 1009.5
20260504183005 51 33 7.0 14.0 0.00 0.00 0.00 44 1009.4
20260504182504 51 337 6.0 14.0 0.00 0.00 0.00 43 1009.4
20260504182005 52 1 9.0 20.0 0.00 0.00 0.00 44 1009.5
20260504181505 51 26 9.0 20.0 0.00 0.00 0.00 46 1009.5
20260504181005 50 332 5.0 12.0 0.00 0.00 0.00 45 1009.5
20260504180005 50 2 5.0 13.0 0.00 0.00 0.00 45 1009.6
20260504175505 51 352 7.0 12.0 0.00 0.00 0.00 46 1009.7
20260504174505 51 15 6.0 12.0 0.00 0.00 0.00 44 1009.7
20260504174004 51 42 5.0 12.0 0.00 0.00 0.00 44 1009.8
20260504173505 51 25 5.0 14.0 0.00 0.00 0.00 44 1009.8
20260504172505 51 54 7.0 12.0 0.00 0.00 0.00 45 1009.7
20260504171505 51 46 6.0 14.0 0.00 0.00 0.00 46 1009.7
20260504171005 50 37 9.0 14.0 0.00 0.00 0.00 46 1009.8
20260504151005 47 85 9.0 15.0 0.00 0.00 0.00 54 1010.0
20260504141005 46 101 7.0 10.0 0.00 0.00 0.00 54 1010.1
20260504082004 50 238 5.0 8.0 0.00 0.00 0.00 45 1003.9
20260504081504 49 220 5.0 9.0 0.00 0.00 0.00 46 1003.9
20260504050004 53 198 8.0 9.0 0.00 0.00 0.00 42 1004.3
20260504045505 53 232 4.0 12.0 0.00 0.00 0.00 40 1004.4
20260504043504 55 183 7.0 10.0 0.00 0.00 0.00 37 1004.3
20260504043005 55 166 9.0 10.0 0.00 0.00 0.00 36 1004.3
20260504042504 56 176 7.0 9.0 0.00 0.00 0.00 36 1004.3
20260504042005 55 175 7.0 9.0 0.00 0.00 0.00 36 1004.3
20260504041504 55 175 7.0 9.0 0.00 0.00 0.00 37 1004.2
20260504041004 55 168 8.0 9.0 0.00 0.00 0.00 37 1004.2
20260504040005 56 147 5.0 6.0 0.00 0.00 0.00 36 1004.1
20260504035504 57 107 1.0 6.0 0.00 0.00 0.00 35 1004.2
20260504035004 57 68 0.0 3.0 0.00 0.00 0.00 35 1004.2
20260504034504 57 66 0.0 10.0 0.00 0.00 0.00 35 1004.1
20260504034004 56 66 3.0 10.0 0.00 0.00 0.00 35 1004.0
20260504033505 57 87 4.0 10.0 0.00 0.00 0.00 36 1003.9
20260504033004 58 196 6.0 7.0 0.00 0.00 0.00 34 1003.7
20260504032504 59 199 6.0 7.0 0.00 0.00 0.00 33 1003.7
20260504032004 59 201 6.0 7.0 0.00 0.00 0.00 32 1003.6
20260504031504 60 201 4.0 6.0 0.00 0.00 0.00 31 1003.6
20260504025504 62 279 2.0 3.0 0.00 0.00 0.00 29 1003.5
20260504025005 62 281 2.0 3.0 0.00 0.00 0.00 28 1003.5